Le nostre stazioni meteo in Italia

Pubblicità
Il mio iltempo24.it
Modena, Italia (16128): Temperatura & dewpoint: 12.03.2019 20:00:00 - 18.03.2019 20:00:00 (CET)Modena, Italia (16128): velocità del vento: 12.03.2019 20:00:00 - 18.03.2019 20:00:00 (CET)Modena, Italia (16128): direzione del vento: 12.03.2019 20:00:00 - 18.03.2019 20:00:00 (CET)Modena, Italia (16128): reduced air pressure: 12.03.2019 20:00:00 - 18.03.2019 20:00:00 (CET)Modena, Italia (16128): precipitazioni: 12.03.2019 20:00:00 - 18.03.2019 20:00:00 (CET)
Data & Tempo tt [°C] td [°C] ff [km/h] ff [kn] dd ppp [hPa] rr [mm]
18.03.2019 20:00:00 - - - - - - -
18.03.2019 19:00:00 8,5 1,2 16 9 E 1019,0 0,0
18.03.2019 18:00:00 9,5 0,9 23 13 E 1018,0 0,0
18.03.2019 17:00:00 9,7 1,3 26 14 E 1016,9 0,0
18.03.2019 16:00:00 10,7 2,5 20 11 ESE 1016,1 0,0
18.03.2019 15:00:00 10,5 2,8 24 13 E 1015,8 0,0
18.03.2019 14:00:00 10,5 3,5 21 12 ENE 1015,6 0,0
18.03.2019 13:00:00 12,7 2,8 14 8 NE 1015,3 0,0
18.03.2019 12:00:00 12,2 2,1 18 10 NO 1014,8 0,0
18.03.2019 11:00:00 11,0 3,5 21 11 ONO 1014,5 0,0
18.03.2019 10:00:00 10,3 4,2 15 8 ONO 1013,7 0,0
18.03.2019 09:00:00 9,8 3,7 18 10 O 1013,2 0,0
18.03.2019 08:00:00 8,8 5,2 7 4 ONO 1012,2 0,2
18.03.2019 07:00:00 8,7 5,6 13 7 ONO 1011,6 0,4
18.03.2019 06:00:00 9,5 6,2 27 15 ONO 1011,1 0,2
18.03.2019 05:00:00 12,8 2,6 13 7 SSE 1008,8 0,0
18.03.2019 04:00:00 11,4 2,9 9 5 SE 1009,0 0,0
18.03.2019 03:00:00 11,1 2,4 8 4 S 1009,7 0,0
18.03.2019 02:00:00 11,9 2,9 3 2 SSE 1010,2 0,0
18.03.2019 01:00:00 12,3 5,0 9 5 SE 1010,5 0,0
18.03.2019 00:00:00 12,5 5,2 7 4 S 1010,7 0,0
17.03.2019 23:00:00 12,4 5,6 5 3 ONO 1011,4 0,0
17.03.2019 22:00:00 13,9 6,0 10 6 O 1011,6 0,0
17.03.2019 21:00:00 14,7 6,0 3 1 O 1011,4 0,0
17.03.2019 20:00:00 15,4 5,9 1 1 NNO 1011,5 0,0
17.03.2019 19:00:00 15,7 5,6 5 3 NO 1011,5 0,0
17.03.2019 18:00:00 16,4 5,7 8 4 NNO 1011,7 0,0
17.03.2019 17:00:00 17,4 5,3 8 5 N 1011,9 0,0
17.03.2019 16:00:00 18,0 5,6 8 4 N 1012,3 0,0
17.03.2019 15:00:00 19,0 4,4 7 4 N 1012,9 0,0
17.03.2019 14:00:00 17,7 4,6 8 4 NE 1013,4 0,0
17.03.2019 13:00:00 17,4 5,0 4 2 NNE 1014,6 0,0
17.03.2019 12:00:00 17,4 6,3 4 2 E 1015,6 0,0
17.03.2019 11:00:00 15,0 6,3 4 2 E 1016,4 0,0
17.03.2019 10:00:00 12,7 5,6 2 1 NNE 1016,8 0,0
17.03.2019 09:00:00 9,5 6,6 1 1 N 1017,1 0,0
17.03.2019 08:00:00 6,9 5,7 1 1 E 1017,1 0,0
17.03.2019 07:00:00 7,6 4,9 0 0 ESE 1016,8 0,0
17.03.2019 06:00:00 7,4 5,4 4 2 NO 1016,4 0,0
17.03.2019 05:00:00 7,1 4,9 5 3 O 1016,4 0,0
17.03.2019 04:00:00 7,3 5,3 5 3 O 1016,3 0,0
17.03.2019 03:00:00 8,0 5,6 5 3 NO 1016,1 0,0
17.03.2019 02:00:00 8,7 5,4 5 3 O 1016,4 0,0
17.03.2019 01:00:00 9,2 5,6 5 3 NNO 1016,2 0,0
17.03.2019 00:00:00 10,2 5,6 2 1 N 1016,2 0,0
16.03.2019 23:00:00 10,7 5,9 3 2 N 1015,9 0,0
16.03.2019 22:00:00 11,6 6,5 7 4 ENE 1015,5 0,0
16.03.2019 21:00:00 13,1 6,4 14 8 E 1014,9 0,0
16.03.2019 20:00:00 15,5 6,5 14 8 E 1014,2 0,0
16.03.2019 19:00:00 19,2 5,3 6 3 ENE 1013,6 0,0
16.03.2019 18:00:00 20,5 5,3 5 3 E 1013,2 0,0
16.03.2019 17:00:00 21,2 5,1 7 4 ESE 1013,0 0,0
16.03.2019 16:00:00 21,1 5,0 8 4 E 1013,2 0,0
16.03.2019 15:00:00 21,5 4,1 3 2 NE 1013,2 0,0
16.03.2019 14:00:00 21,1 4,6 3 2 ONO 1013,9 0,0
16.03.2019 13:00:00 19,7 4,6 4 2 NNE 1014,5 0,0
16.03.2019 12:00:00 18,6 4,0 5 3 N 1015,1 0,0
16.03.2019 11:00:00 17,2 3,1 4 2 NE 1015,3 0,0
16.03.2019 10:00:00 14,5 4,5 - - - 1015,2 -
16.03.2019 09:00:00 11,3 4,7 3 1 ESE 1015,0 0,0
16.03.2019 08:00:00 9,5 3,7 - - - - 0,0
16.03.2019 07:00:00 7,7 3,9 3 2 S 1013,7 0,0
16.03.2019 06:00:00 7,3 3,3 1 1 N 1013,4 0,0
16.03.2019 05:00:00 9,5 2,8 3 2 NO 1013,1 0,0
16.03.2019 04:00:00 9,0 4,0 2 1 NE 1013,0 0,0
16.03.2019 03:00:00 8,9 4,7 1 1 S 1013,1 0,0
16.03.2019 02:00:00 8,8 4,0 2 1 N 1013,4 0,0
16.03.2019 01:00:00 10,2 4,3 4 2 E 1013,0 0,0
16.03.2019 00:00:00 10,6 4,3 3 2 E 1013,1 0,0
15.03.2019 23:00:00 11,9 4,4 4 2 ESE 1013,1 0,0
15.03.2019 22:00:00 13,2 4,1 8 4 E 1012,5 0,0
15.03.2019 21:00:00 15,7 2,5 6 4 E 1011,8 0,0
15.03.2019 20:00:00 16,3 3,4 6 4 E 1011,2 0,0
15.03.2019 19:00:00 17,1 3,4 7 4 ESE 1010,9 0,0
15.03.2019 18:00:00 18,0 3,1 8 4 E 1010,4 0,0
15.03.2019 17:00:00 19,4 2,7 10 6 NE 1009,9 0,0
15.03.2019 16:00:00 20,3 1,2 11 6 E 1009,7 0,0
15.03.2019 15:00:00 20,7 1,5 8 5 ESE 1009,7 0,0
15.03.2019 14:00:00 19,3 0,8 8 4 N 1009,7 0,0
15.03.2019 13:00:00 19,6 0,6 5 3 NNO 1010,2 0,0
15.03.2019 12:00:00 17,3 0,9 5 3 NNO 1011,1 0,0
15.03.2019 11:00:00 15,3 0,7 3 2 N 1011,8 0,0
15.03.2019 10:00:00 12,3 0,1 4 2 NO 1012,0 0,0
15.03.2019 09:00:00 10,6 -1,8 8 5 NNO 1011,3 0,0
15.03.2019 08:00:00 8,5 -3,1 2 1 NE 1011,1 0,0
15.03.2019 07:00:00 8,0 -4,5 4 2 OSO 1010,7 0,0
15.03.2019 06:00:00 9,0 -3,2 14 8 O 1010,0 0,0
15.03.2019 05:00:00 8,1 -3,7 14 8 O 1009,7 0,0
15.03.2019 04:00:00 9,0 -5,3 14 8 O 1009,2 0,0
15.03.2019 03:00:00 8,7 -4,2 11 6 NO 1009,1 0,0
15.03.2019 02:00:00 10,1 -7,1 16 9 O 1009,0 0,0
15.03.2019 01:00:00 9,6 -7,1 11 6 O 1008,6 0,0
15.03.2019 00:00:00 9,9 -5,2 13 7 O 1008,4 0,0
14.03.2019 23:00:00 11,3 -5,7 14 7 O 1008,7 0,0
14.03.2019 22:00:00 12,5 -8,7 8 5 ONO 1009,1 0,0
14.03.2019 21:00:00 13,5 -9,0 13 7 NO 1009,2 0,0
14.03.2019 20:00:00 14,1 -9,9 11 6 NO 1009,8 0,0
14.03.2019 19:00:00 14,4 -8,3 8 5 ONO 1009,9 0,0
14.03.2019 18:00:00 15,1 -4,3 6 4 OSO 1009,6 0,0
14.03.2019 17:00:00 15,5 -5,0 5 3 S 1009,9 0,0
14.03.2019 16:00:00 15,8 -6,5 6 3 NO 1010,5 0,0
14.03.2019 15:00:00 15,8 -3,7 8 4 ONO 1011,4 0,0
14.03.2019 14:00:00 14,5 -1,6 14 8 NO 1012,4 0,0
14.03.2019 13:00:00 13,5 -2,1 11 6 ONO 1013,8 0,0
14.03.2019 12:00:00 12,1 -1,1 8 5 ONO 1014,9 0,0
14.03.2019 11:00:00 11,2 -0,3 6 3 NNO 1015,2 0,0
14.03.2019 10:00:00 9,0 -0,9 9 5 ONO 1016,1 0,0
14.03.2019 09:00:00 7,5 0,0 4 2 SO 1016,0 0,0
14.03.2019 08:00:00 3,4 -1,0 5 3 O 1016,4 0,0
14.03.2019 07:00:00 3,0 -1,4 6 4 SO 1016,4 0,0
14.03.2019 06:00:00 2,5 -0,1 - - - 1016,4 0,0
14.03.2019 05:00:00 2,2 0,1 3 1 O 1016,3 0,0
14.03.2019 04:00:00 3,2 -0,1 10 6 O 1016,2 0,0
14.03.2019 03:00:00 3,6 0,3 9 5 NO 1015,7 0,0
14.03.2019 02:00:00 4,4 0,9 9 5 ONO 1015,8 0,0
14.03.2019 01:00:00 4,8 2,5 - - - 1015,7 0,0
14.03.2019 00:00:00 5,4 2,9 - - - 1015,7 0,0
13.03.2019 23:00:00 6,1 3,4 4 2 SE 1015,1 0,0
13.03.2019 22:00:00 6,1 3,3 3 1 S 1014,7 0,0
13.03.2019 21:00:00 6,6 2,9 7 4 SSE 1014,2 0,0
13.03.2019 20:00:00 6,3 3,8 6 3 ENE 1014,2 0,0
13.03.2019 19:00:00 6,3 3,6 6 3 ENE 1013,6 0,0
13.03.2019 18:00:00 7,6 2,3 1 1 NNE 1013,1 0,0
13.03.2019 17:00:00 7,0 1,9 16 8 SSE 1012,1 0,8
13.03.2019 16:00:00 6,8 2,3 3 2 SE 1012,9 0,0
13.03.2019 15:00:00 - - - - - - -
13.03.2019 14:00:00 - - - - - - -
13.03.2019 13:00:00 - - - - - - -
13.03.2019 12:00:00 8,3 -4,2 11 6 NO 1014,5 0,0
13.03.2019 11:00:00 8,6 -6,4 8 4 NO 1014,5 0,0
13.03.2019 10:00:00 8,8 -8,3 2 1 N 1014,5 0,0
13.03.2019 09:00:00 7,3 -10,0 4 2 S 1014,8 0,0
13.03.2019 08:00:00 5,5 -8,8 7 4 S 1015,1 0,0
13.03.2019 07:00:00 5,6 -9,0 2 1 E 1015,8 0,0
13.03.2019 06:00:00 5,9 -10,4 1 1 N 1016,0 0,0
13.03.2019 05:00:00 7,4 -12,4 6 3 SE 1016,0 0,0
13.03.2019 04:00:00 5,7 -10,5 6 3 SSO 1016,7 0,0
13.03.2019 03:00:00 7,1 -10,7 6 3 SE 1017,8 0,0
13.03.2019 02:00:00 7,3 -10,5 6 4 NO 1018,6 0,0
13.03.2019 01:00:00 8,6 -10,8 5 3 ONO 1019,2 0,0
13.03.2019 00:00:00 8,0 -10,4 9 5 ONO 1019,9 0,0
12.03.2019 23:00:00 7,7 -11,1 7 4 ONO 1020,3 0,0
12.03.2019 22:00:00 8,7 -11,3 7 4 O 1020,8 0,0
12.03.2019 21:00:00 10,9 -13,2 8 4 E 1020,9 0,0
12.03.2019 20:00:00 11,7 -14,1 11 6 E 1021,3 0,0

tt = Temperatura
td = dewpoint
ff = velocità del vento
dd = direzione del vento
ppp = reduced air pressure
rr = precipitazioni

Stazioni seguenti

WeatherPro
AMSI
MeteoEarth